[TLELIST] Archives

 

[TLELIST] Current TLEs

June 21st 2024 PDT

HST 1 20580U 90037B 24173.06543191 .00005484 00000-0 25449-3 0 9998 2 20580 28.4698 319.1479 0003098 78.7776 281.3164 15.17804489677888 ISS (ZARYA) 1 25544U 98067A 24173.41035641 -.00101179 00000-0 -18119-2 0 9994 2 25544 51.6399 294.3683 0010427 351.1491 118.1351 15.49552914459203 CXO 1 25867U 99040B 24170.50726066 .00000476 00000-0 00000-0 0 9993 2 25867 41.1565 153.6982 8888262 296.5484 0.0134 0.37811706 14563 ...Continue Reading

[TLELIST] Current TLEs

June 20th 2024 PDT

HST 1 20580U 90037B 24171.81611260 .00005364 00000-0 24880-3 0 9997 2 20580 28.4699 327.5184 0003093 66.8153 293.2765 15.17789860677432 ISS (ZARYA) 1 25544U 98067A 24172.37777619 .00015551 00000-0 28383-3 0 9997 2 25544 51.6405 299.4750 0010603 347.2333 118.0270 15.49555850459042 CXO 1 25867U 99040B 24170.50726066 .00000476 00000-0 00000-0 0 9993 2 25867 41.1565 153.6982 8888262 296.5484 0.0134 0.37811706 14563 ...Continue Reading

[TLELIST] Current TLEs

June 19th 2024 PDT

HST 1 20580U 90037B 24170.76404505 .00006069 00000-0 28283-3 0 9996 2 20580 28.4700 334.5673 0003079 56.3890 303.6996 15.17778850677273 ISS (ZARYA) 1 25544U 98067A 24171.46253553 .00015333 00000-0 28028-3 0 9996 2 25544 51.6399 304.0060 0010515 343.7974 52.5587 15.49525638458903 CXO 1 25867U 99040B 24170.50726066 .00000476 00000-0 00000-0 0 9993 2 25867 41.1565 153.6982 8888262 296.5484 0.0134 0.37811706 14563 ...Continue Reading

[TLELIST] Current TLEs

June 18th 2024 PDT

HST 1 20580U 90037B 24169.84347884 .00006360 00000-0 29693-3 0 9999 2 20580 28.4700 340.7349 0003035 47.0995 312.9852 15.17768109677132 ISS (ZARYA) 1 25544U 98067A 24170.37528350 .00016566 00000-0 30244-3 0 9997 2 25544 51.6410 309.3890 0010444 339.5369 107.8830 15.49495945458731 CXO 1 25867U 99040B 24170.50726066 .00000476 00000-0 00000-0 0 9993 2 25867 41.1565 153.6982 8888262 296.5484 0.0134 0.37811706 14563 ...Continue Reading

[TLELIST] Current TLEs

June 17th 2024 PDT

HST 1 20580U 90037B 24168.85715015 .00006895 00000-0 32281-3 0 9994 2 20580 28.4700 347.3434 0002931 37.6804 322.3993 15.17756818676985 ISS (ZARYA) 1 25544U 98067A 24168.81173549 .00015933 00000-0 29176-3 0 9998 2 25544 51.6395 317.1350 0010320 333.6635 26.3828 15.49442640458494 CXO 1 25867U 99040B 24170.50726066 .00000476 00000-0 00000-0 0 9993 2 25867 41.1565 153.6982 8888262 296.5484 0.0134 0.37811706 14563 ...Continue Reading

[TLELIST] Current TLEs

June 16th 2024 PDT

HST 1 20580U 90037B 24167.87081361 .00007353 00000-0 34495-3 0 9994 2 20580 28.4699 353.9519 0002941 26.9462 333.1283 15.17745080676836 ISS (ZARYA) 1 25544U 98067A 24167.87184072 -.00110344 00000-0 -19901-2 0 9994 2 25544 51.6413 321.7831 0010404 330.0176 183.8974 15.49396805458340 CXO 1 25867U 99040B 24170.50726066 .00000476 00000-0 00000-0 0 9993 2 25867 41.1565 153.6982 8888262 296.5484 0.0134 0.37811706 14563 ...Continue Reading

[TLELIST] Current TLEs

June 15th 2024 PDT

HST 1 20580U 90037B 24166.88446893 .00006483 00000-0 30319-3 0 9993 2 20580 28.4699 0.5604 0002911 16.4869 343.5818 15.17731007676684 ISS (ZARYA) 1 25544U 98067A 24166.81258440 .00014471 00000-0 25573-3 0 9993 2 25544 51.6389 327.0332 0008352 299.1485 60.8668 15.50561893458183 CXO 1 25867U 99040B 24167.86284491 .00000438 00000-0 00000-0 0 9997 2 25867 41.1255 153.8752 8892963 296.4317 359.9724 0.37812782 14558 ...Continue Reading

[TLELIST] Current TLEs

June 14th 2024 PDT

HST 1 20580U 90037B 24165.89811572 .00006233 00000-0 29122-3 0 9996 2 20580 28.4697 7.1686 0002812 6.5499 353.5130 15.17718728676531 ISS (ZARYA) 1 25544U 98067A 24165.84582315 .00015018 00000-0 26535-3 0 9993 2 25544 51.6390 331.8266 0008291 295.4772 64.5359 15.50532670458037 CXO 1 25867U 99040B 24167.86284491 .00000438 00000-0 00000-0 0 9997 2 25867 41.1255 153.8752 8892963 296.4317 359.9724 0.37812782 14558 ...Continue Reading

[TLELIST] Current TLEs

June 13th 2024 PDT

HST 1 20580U 90037B 24164.91175493 .00006763 00000-0 31689-3 0 9992 2 20580 28.4698 13.7765 0002751 356.6412 3.4162 15.17706572676382 ISS (ZARYA) 1 25544U 98067A 24164.96786152 .00016556 00000-0 29195-3 0 9993 2 25544 51.6410 336.1742 0008046 289.9927 206.1217 15.50506438457898 CXO 1 25867U 99040B 24167.86284491 .00000438 00000-0 00000-0 0 9997 2 25867 41.1255 153.8752 8892963 296.4317 359.9724 0.37812782 14558 ...Continue Reading

[TLELIST] Current TLEs

June 12th 2024 PDT

HST 1 20580U 90037B 24164.25417633 .00007389 00000-0 34716-3 0 9993 2 20580 28.4700 18.1814 0002716 349.6405 10.4132 15.17698203676549 ISS (ZARYA) 1 25544U 98067A 24164.31017817 .00016638 00000-0 29358-3 0 9999 2 25544 51.6407 339.4356 0007985 287.5968 135.0459 15.50484445457791 CXO 1 25867U 99040B 24165.21824671 .00000417 00000-0 00000-0 0 9991 2 25867 41.0768 154.0945 8897945 296.2745 359.9459 0.37810994 14548 ...Continue Reading
  • This mailing list is a public mailing list - anyone may join or leave, at any time.
  • This mailing list is announce-only.

International Space Station (ISS) / Hubble Space Telescope (HST) / Chandra X-Ray Observatory Orbital Data via EMAIL

Privacy Policy:

Private list